Theta_e
340 345 352 353 353 351 350 349 348 348 348 347 348 349 350 351 351 352 353 353 354 354 355 355 354 354 354 354 355 355 356 358 357 356 355 358 358 357 358 359 358 355 359
342 346 352 352 352 351 348 348 348 347 347 347 347 347 347 348 348 349 349 350 351 351 352 353 353 353 354 354 353 354 354 355 355 356 356 354 354 355 356 355 357 356 359
343 345 348 352 351 349 349 348 348 346 347 348 348 348 347 347 348 348 348 348 348 348 347 349 350 351 350 350 350 350 351 352 353 354 355 352 352 355 355 356 356 357 358
343 342 344 349 348 347 347 345 345 344 343 343 342 343 342 341 341 341 342 342 343 344 345 344 345 347 348 347 347 347 347 348 349 351 342 345 349 354 354 356 356 357 358
342 343 344 346 345 345 344 342 341 340 340 339 338 338 337 335 336 335 335 334 332 332 333 337 339 339 341 343 345 346 346 347 347 342 338 339 343 345 353 354 355 355 357
342 341 344 344 342 342 341 339 338 338 337 337 336 335 333 333 333 332 332 331 331 332 331 331 332 333 334 336 338 340 342 344 347 339 337 337 337 344 351 352 353 354 355
335 336 337 342 340 339 338 336 335 334 334 336 333 332 332 331 331 331 331 331 331 332 332 331 330 329 330 330 331 333 335 337 338 337 338 338 337 340 350 353 353 354 355
333 333 334 340 339 336 335 334 333 332 333 330 329 329 329 329 330 331 331 332 332 332 332 332 332 332 332 331 331 331 332 333 331 332 335 336 338 341 343 350 353 354 355
332 331 329 330 334 334 333 332 331 331 331 329 329 331 332 332 330 332 332 332 333 333 333 333 333 334 333 332 332 332 332 333 327 327 329 333 337 341 342 346 351 352 355
327 327 326 326 327 327 326 334 331 330 330 329 329 331 328 327 329 331 332 331 333 331 332 332 332 332 332 332 331 331 331 326 317 320 326 329 336 340 344 346 352 350 353
322 321 321 320 319 325 325 327 329 334 331 332 330 328 319 319 321 321 328 329 329 329 328 329 329 330 328 325 327 329 327 316 315 324 327 331 338 343 347 347 354 352 352
318 318 316 315 317 321 322 315 318 320 324 323 322 318 316 316 321 321 323 326 326 328 327 327 326 326 322 317 317 321 317 316 316 317 320 333 337 341 345 350 350 350 350
317 316 316 316 319 318 317 314 316 320 320 321 320 317 316 316 315 315 315 316 316 321 316 316 315 316 316 316 317 316 317 317 316 316 318 329 334 338 344 348 352 351 349
315 317 316 317 317 315 315 315 315 314 315 318 318 318 314 314 315 314 313 315 315 316 314 313 313 315 317 317 317 316 317 317 317 317 318 328 331 333 338 342 345 348 347
314 317 317 319 318 318 318 315 316 316 314 314 315 316 314 314 314 313 313 314 314 315 314 314 313 315 316 316 316 316 317 318 318 317 317 326 329 331 333 336 337 340 342
316 318 320 320 320 319 319 316 316 317 316 313 315 315 314 313 312 313 313 314 313 315 315 313 313 316 316 314 315 316 317 317 318 318 317 318 326 328 330 332 336 336 339
317 319 318 319 318 317 317 318 317 317 318 316 315 315 316 314 313 314 313 313 313 314 315 313 314 315 315 314 314 315 317 319 318 317 317 318 319 323 327 330 333 333 337
316 317 316 321 322 318 318 318 318 318 318 318 318 317 317 316 314 314 312 313 314 313 313 313 313 314 313 313 313 315 317 318 318 317 317 317 318 317 319 326 329 334 335
317 316 316 316 316 320 321 319 318 319 319 320 322 318 316 317 316 313 313 314 315 311 312 313 314 313 312 313 313 316 316 316 315 316 316 316 316 318 317 319 326 330 335
318 317 316 315 316 319 320 320 321 320 320 319 316 315 317 316 317 315 314 314 314 313 312 312 312 312 312 313 312 314 313 314 314 314 315 315 317 317 318 318 318 320 327
318 317 317 317 317 317 320 320 318 317 317 317 317 317 317 317 317 316 314 313 314 312 313 313 312 312 312 312 311 312 312 312 312 314 314 314 317 315 317 318 319 320 320
318 318 317 317 317 318 319 318 317 316 316 317 317 318 318 317 316 315 314 314 314 312 312 312 311 311 311 312 312 307 305 308 310 312 313 314 314 314 316 317 317 319 322
318 318 319 318 318 319 319 318 317 316 315 314 315 315 317 317 317 316 316 314 313 313 312 312 311 310 310 311 313 312 305 302 306 310 311 312 313 313 314 315 316 318 320
319 320 320 320 320 319 318 317 316 314 312 313 313 315 316 317 316 317 317 316 315 314 312 312 313 312 310 310 310 312 311 310 307 305 310 312 313 313 315 314 315 316 318
321 321 320 320 319 319 318 317 315 313 312 313 312 311 313 314 315 317 318 317 316 314 314 313 312 311 310 311 310 311 310 309 309 307 305 310 313 313 314 314 315 315 317
319 318 318 317 317 316 316 314 312 311 311 310 310 309 310 312 313 315 316 315 316 314 313 313 313 311 310 310 311 310 311 310 308 305 305 307 309 312 313 315 314 315 316
Wind_Speed
1 1 5 10 12 12 12 12 12 12 12 12 11 11 11 13 13 13 12 13 13 12 12 11 9 10 10 11 11 12 12 9 6 5 4 6 5 7 7 9 9 9 10
4 3 8 11 11 11 10 11 11 11 11 10 10 10 11 12 12 12 12 13 14 13 12 12 11 12 13 11 10 11 12 12 12 4 4 3 2 4 7 8 7 9 11
6 5 6 11 11 10 10 11 11 10 11 10 10 11 11 12 12 12 12 12 12 12 11 13 14 13 11 11 11 11 11 11 12 10 8 4 4 4 6 8 9 7 11
6 5 5 10 10 10 10 10 9 10 9 9 9 10 10 11 11 11 11 12 12 12 11 10 11 12 11 10 9 8 8 9 9 10 5 5 5 8 4 7 10 10 10
5 5 5 9 9 10 9 9 8 7 7 7 8 9 9 10 10 10 10 11 11 11 10 9 9 9 10 11 10 9 8 8 8 7 5 4 3 7 5 7 8 10 10
5 4 7 9 8 8 8 7 6 5 5 6 7 7 8 8 8 8 9 9 11 12 11 9 9 9 9 9 10 10 10 10 7 5 5 5 4 9 9 8 8 9 10
5 4 4 8 7 7 7 5 4 4 4 5 6 6 7 7 7 6 8 8 10 12 12 11 9 8 9 9 9 10 10 10 6 4 5 5 6 10 9 10 11 10 11
5 4 3 5 5 5 5 5 4 4 4 5 5 6 6 5 5 7 7 9 10 11 12 11 10 9 9 9 8 8 9 10 6 4 5 6 8 10 10 11 11 12 12
5 4 3 3 2 2 3 3 3 2 4 4 4 6 8 5 4 8 7 8 12 10 12 13 10 10 8 8 9 10 10 9 4 4 5 4 9 10 11 13 16 13 13
3 3 1 1 2 2 3 5 2 1 2 3 3 5 5 7 6 6 7 7 10 6 10 9 10 12 9 7 11 11 12 10 6 6 4 4 11 12 12 15 17 15 13
2 1 1 1 2 2 1 3 4 5 2 5 4 5 5 3 3 5 5 7 8 7 6 7 10 10 11 11 11 12 11 3 4 4 3 9 10 11 12 12 14 14 13
3 2 2 1 1 3 1 3 4 2 0 1 1 1 1 2 2 3 5 7 8 7 5 8 11 10 8 4 4 8 3 5 3 3 3 10 9 10 11 11 13 14 13
5 3 4 2 2 4 3 1 2 1 1 2 3 1 2 2 2 2 1 2 3 5 2 5 5 4 6 4 4 3 4 4 3 3 5 11 12 10 11 8 14 14 13
6 6 6 4 3 3 2 2 1 1 0 1 3 3 1 2 2 3 2 2 2 0 2 2 2 3 4 3 3 5 6 5 4 3 5 11 11 11 9 6 4 10 12
7 6 6 4 4 3 2 2 1 0 1 2 2 4 3 3 3 3 3 2 2 2 1 2 3 3 3 4 4 4 5 6 6 4 4 12 11 10 9 6 3 6 7
6 6 5 5 5 4 2 1 2 1 2 3 3 4 5 4 4 4 3 3 3 2 1 2 3 2 3 3 5 5 6 5 6 5 4 5 11 11 10 9 8 7 9
5 5 7 6 5 4 3 3 2 3 3 3 4 5 6 6 6 5 3 4 3 2 3 2 3 2 3 3 4 5 4 5 5 6 5 4 6 9 10 10 10 10 12
4 6 6 4 3 5 5 3 3 4 3 3 4 4 6 6 6 4 3 4 3 2 2 3 2 2 3 3 4 5 5 6 7 6 5 5 4 4 6 11 10 11 13
8 7 7 6 6 6 5 4 4 5 4 4 4 3 5 6 5 5 4 5 3 3 3 2 2 2 2 4 4 5 6 6 6 5 4 4 4 4 3 7 11 12 12
7 7 7 6 6 5 4 4 3 3 4 3 4 3 5 4 6 6 4 5 3 3 3 3 3 1 3 3 4 6 6 5 4 3 3 3 2 4 3 4 4 5 12
7 7 8 5 6 4 2 3 3 3 2 3 3 6 5 5 5 5 4 4 3 4 4 3 2 2 2 1 3 3 4 3 3 1 1 0 1 5 4 4 3 3 5
6 8 7 7 7 5 2 2 2 2 3 3 3 5 6 6 5 5 5 5 5 4 5 4 4 2 2 2 1 0 4 3 2 3 1 1 1 3 3 4 6 6 5
7 8 6 7 6 4 5 3 2 2 2 2 2 3 3 4 6 7 7 6 6 5 5 4 4 5 3 2 4 2 2 2 3 2 2 3 4 4 4 5 6 7 7
7 6 6 6 5 5 5 3 3 2 2 2 3 3 6 7 8 6 7 8 7 4 6 5 4 4 3 4 1 4 4 2 2 4 2 3 5 5 7 5 5 7 8
6 5 5 6 5 4 4 4 3 3 3 3 3 5 5 6 6 8 5 5 7 5 5 6 4 5 4 3 3 2 3 3 5 5 8 6 5 3 6 7 6 6 8
4 5 5 3 2 3 3 3 4 5 5 4 5 4 4 4 6 7 8 6 7 6 7 6 7 6 6 5 4 4 4 3 3 4 6 6 9 9 7 7 8 5 6
Wind_Direction
128 201 132 113 103 88 83 83 80 74 73 69 63 61 64 62 57 51 46 46 47 51 50 52 44 39 47 36 23 16 10 29 88 84 51 57 101 129 124 128 130 130 125
109 89 108 102 93 85 82 81 79 77 73 73 73 68 57 57 59 57 49 42 37 33 38 39 35 39 32 35 36 21 15 9 11 26 98 79 75 122 148 145 142 145 136
90 90 89 99 92 84 83 82 73 73 71 70 70 68 64 61 56 56 51 47 42 35 29 24 21 25 20 23 24 20 10 9 357 358 10 11 333 240 166 158 159 141 143
108 104 99 100 99 97 91 87 85 79 78 76 70 67 59 56 52 49 47 43 39 30 23 22 23 12 5 9 11 13 8 0 356 5 13 352 314 324 194 186 173 162 157
118 119 128 115 113 110 102 93 87 85 85 80 74 69 59 49 46 40 38 33 27 23 11 7 9 5 355 354 352 355 356 354 348 0 345 349 325 311 264 222 195 181 173
131 126 126 120 115 108 101 99 96 87 79 63 58 58 52 47 47 40 34 32 23 20 10 356 349 345 341 343 342 341 344 340 346 350 332 327 324 309 253 220 221 199 190
139 123 113 122 114 111 105 100 93 81 69 58 44 39 36 32 29 26 21 10 9 8 8 10 4 349 340 332 328 325 328 327 333 339 318 317 311 307 262 226 218 216 202
122 100 40 107 106 103 88 81 72 63 65 62 52 42 29 10 357 354 352 348 343 347 351 353 354 353 350 345 339 333 322 310 319 312 311 303 300 303 292 261 230 220 215
111 108 75 64 58 83 97 89 85 68 78 78 57 41 28 8 343 351 326 336 325 324 333 336 338 335 329 342 341 343 336 321 334 307 288 278 293 295 283 279 233 222 218
106 100 122 11 358 14 15 358 352 337 61 71 43 32 25 31 29 30 26 350 348 344 342 343 18 9 356 350 356 352 347 358 340 307 273 270 286 292 285 280 226 215 217
141 174 311 298 278 228 239 282 327 312 1 38 32 37 36 27 26 40 23 23 17 3 344 4 5 10 20 11 1 353 350 332 322 313 298 289 292 293 287 279 212 209 211
173 224 186 53 90 152 59 7 329 253 28 18 11 65 358 345 317 41 18 12 8 353 348 9 358 358 6 349 337 347 351 340 330 320 300 320 325 324 303 254 223 213 209
193 180 193 173 133 133 119 45 30 50 333 319 283 243 296 341 341 349 6 350 344 358 17 12 357 347 338 338 339 347 341 348 350 327 315 321 334 335 327 294 220 216 208
181 187 194 201 191 149 145 114 84 113 78 282 266 265 233 269 306 309 306 301 317 288 28 14 347 318 323 354 349 343 342 342 337 337 329 323 324 329 340 356 217 216 221
192 192 196 191 215 182 154 151 222 294 207 258 274 252 214 246 257 264 269 273 307 316 19 345 341 336 341 340 342 342 332 325 323 319 320 325 323 318 320 307 239 233 224
198 187 195 202 203 211 199 231 258 220 220 219 245 251 220 224 235 243 254 258 275 277 293 314 304 310 309 318 322 327 316 304 305 304 309 314 326 318 309 288 256 248 228
194 184 201 218 227 229 238 246 265 277 273 264 252 244 238 223 227 244 272 285 258 272 286 283 291 295 297 303 287 300 298 292 292 301 297 291 307 311 296 292 274 261 248
192 199 219 241 246 247 254 268 262 263 259 268 272 249 243 229 222 229 245 252 268 271 285 290 277 268 272 280 297 303 298 295 289 283 286 290 284 285 294 283 278 276 251
213 214 230 240 247 261 279 273 243 251 256 255 268 265 258 242 227 215 223 250 256 256 264 260 261 242 281 294 301 287 289 288 290 293 283 297 313 308 283 282 288 277 266
228 229 226 227 235 254 269 273 268 273 265 260 258 263 275 250 239 218 226 242 239 253 252 241 252 265 257 272 291 292 285 287 291 263 256 309 21 14 349 317 305 293 285
216 224 227 238 243 210 246 281 307 280 298 271 279 278 287 272 249 223 221 239 230 233 238 221 239 254 280 256 311 302 290 292 256 281 341 278 306 342 355 358 346 306 289
211 227 232 239 254 239 196 222 217 230 266 256 273 279 273 271 257 235 221 229 227 236 235 226 202 224 241 229 249 351 331 329 351 273 295 321 304 343 328 328 322 310 295
223 226 224 235 254 255 224 213 234 229 291 290 277 275 271 286 277 240 236 221 223 211 234 221 202 195 225 261 207 196 286 269 318 314 234 274 279 306 296 314 310 301 290
223 219 221 231 238 233 201 197 205 230 280 239 258 284 290 281 281 266 245 243 227 208 222 222 195 215 180 224 254 221 243 219 264 308 240 277 285 295 290 283 278 286 282
201 205 215 212 216 190 187 197 216 260 225 273 270 278 291 296 286 281 257 258 251 220 226 212 201 207 206 205 202 204 225 225 237 251 293 301 294 278 291 281 275 269 268
150 176 174 175 232 233 222 211 234 256 290 298 292 304 297 292 290 273 266 242 245 225 219 208 211 210 208 212 224 215 215 205 209 217 247 270 285 308 290 281 281 266 258